Home > Weather > Prince George > Past weeks

Flag for Canada Past Weather in Prince George, British Columbia, Canada — Yesterday and Last 2 Weeks

Now
48 °F

Clear.


Feels Like: 46 °F
Forecast: 51 / 76 °F
Wind: 6 mph from South

Location: Prince George

Current Time: Aug 26, 2016 at 5:14:58 AM

Latest Report: Aug 26, 2016 at 4:00 AM


Visibility: 9 mi

Pressure: 30.05 "Hg (28.04 "Hg at 573m altitude)

Humidity: 87%

Dew Point: 45 °F

Location of Prince GeorgeLocation

Past Weather in Prince George — Graph

°F

Prince George Temperature Yesterday

Maximum temperature yesterday: 75 °F (at 2:00 PM)
Minimum temperature yesterday: 46 °F (at 7:00 AM)
Average temperature yesterday: 62 °F

High & Low Weather Summary for the Past Weeks

 TemperatureHumidityPressure
High81 °F (Aug 13, 4:00 PM)100% (Aug 13, 2:00 AM)30.41 "Hg (Aug 13, 2:00 AM)
Low37 °F (Aug 18, 6:00 AM)27% (Aug 18, 4:00 PM)29.68 "Hg (Aug 21, 4:53 AM)
Average61 °F70%30.11 "Hg
* Reported Aug 11 4:00 AM — Aug 26 4:00 AM, Prince George, Weather by CustomWeather, © 2016

Note: Actual official high and low records may vary slightly from our data, if they occured in-between our weather recording intervals... More about our weather records

Advertising

Prince George Weather History for the Previous 24 Hours

Scroll right to see more
 ConditionsComfort  
Time TempWeatherWind HumidityBarometerVisibility
4:00 AM
Fri, Aug 26
48 °FClear.6 mph87%30.05 "Hg9 mi
3:00 AM52 °FClear.7 mph82%30.07 "Hg9 mi
2:00 AM50 °FClear.3 mph88%30.09 "Hg9 mi
1:00 AM50 °FClear.2 mph94%30.11 "Hg9 mi
12:00 AM54 °FClear.3 mph82%30.11 "Hg9 mi
11:00 PM
Thu, Aug 25
54 °FClear.5 mph82%30.13 "Hg9 mi
10:00 PM55 °FClear.3 mph82%30.15 "Hg9 mi
9:00 PM59 °FSunny.3 mph68%30.17 "Hg9 mi
8:00 PM66 °FSunny.No wind68%30.17 "Hg9 mi
7:00 PM73 °FSunny.2 mph41%30.18 "Hg9 mi
6:00 PM75 °FSunny.No wind31%30.20 "Hg9 mi
5:00 PM75 °FSunny.No wind34%30.22 "Hg9 mi
4:00 PM75 °FSunny.7 mph34%30.24 "Hg9 mi
3:00 PM75 °FPassing clouds.3 mph34%30.26 "Hg9 mi
2:00 PM75 °FSunny.5 mph39%30.29 "Hg9 mi
1:00 PM73 °FSunny.7 mph41%30.31 "Hg9 mi
12:00 PM72 °FSunny.6 mph44%30.33 "Hg9 mi
11:00 AM68 °FSunny.5 mph56%30.35 "Hg9 mi
10:00 AM63 °FSunny.7 mph64%30.37 "Hg9 mi
9:00 AM59 °FSunny.8 mph72%30.38 "Hg9 mi
8:00 AM55 °FSunny.6 mph82%30.38 "Hg9 mi
7:00 AM46 °FClear.No wind100%30.38 "Hg9 mi
6:00 AM50 °FClear.5 mph94%30.36 "Hg9 mi
5:00 AM50 °FClear.No wind88%30.35 "Hg9 mi
Weather by CustomWeather, © 2016

See weather overviewHow to use our weather pages